Weather History for Evanston, WY

Change the Weather History Date:

Friday, November 8, 2013

  Actual Average Record
Temperature  
Mean Temperature 45 °F 34 °F  
Max Temperature 50 °F 43 °F 62 °F (2006)
Min Temperature 39 °F 24 °F 12 °F (2000)
Degree Days  
Heating Degree Days 20 32  
Month to date heating degree days 246 240  
Since 1 July heating degree days 1228 1293  
Cooling Degree Days 0 0  
Month to date cooling degree days 0 0  
Year to date cooling degree days 348 162  
Moisture  
Dew Point 23 °F    
Average Humidity 41    
Maximum Humidity 45    
Minimum Humidity 37    
Precipitation  
Precipitation 0.00 in 0.04 in 0.54 in (2002)
Month to date precipitation 0.10 0.37  
Year to date precipitation 5.12 10.88  
Sea Level Pressure  
Sea Level Pressure 29.97 in    
Wind  
Wind Speed 19 mph (SW)    
Max Wind Speed 31 mph    
Max Gust Speed 40 mph    
Visibility 10 miles    
Events      
T = Trace of Precipitation, MM = Missing Value Source: NWS Daily Summary

Daily Weather History Graph

Daily Weather History Graph

Search for Another Location

Airport:

Trip Planner

Search our weather history database for the weather conditions in past years. The results will help you decide how hot, cold, wet, or windy it might be!

Date:

Astronomy

Nov. 08, 2013 Rise Set
Actual Time 7:04 AM MST 5:11 PM MST
Civil Twilight 6:35 AM MST 5:40 PM MST
Nautical Twilight 6:02 AM MST 6:13 PM MST
Astronomical Twilight 5:29 AM MST 6:45 PM MST
Moon 12:02 PM MST (11/8) 10:36 PM MST (11/8)
Length of Visible Light 11h 05m
Length of Day
10h 06m
Waxing Crescent, 34% of the Moon is Illuminated
Nov 8
Waxing Crescent
Nov 9
First Quarter
Nov 17
Full
Nov 25
Last Quarter
Dec 2
New

Hourly Weather History & Observations

Time (MST) Temp. Windchill Dew Point Humidity Pressure Visibility Wind Dir Wind Speed Gust Speed Precip Events Conditions
12:53 AM 42.1 °F 35.7 °F 21.0 °F 43% 29.89 in 10.0 mi SW 11.5 mph - N/A   Mostly Cloudy
1:53 AM 41.0 °F 35.2 °F 21.0 °F 45% 29.89 in 10.0 mi SSE 9.2 mph - N/A   Partly Cloudy
2:53 AM 41.0 °F 35.8 °F 21.0 °F 45% 29.90 in 10.0 mi SSW 8.1 mph - N/A   Mostly Cloudy
3:53 AM 44.1 °F 39.0 °F 19.9 °F 38% 29.91 in 10.0 mi SSW 9.2 mph - N/A   Overcast
4:53 AM 43.0 °F 33.8 °F 18.0 °F 37% 29.89 in 10.0 mi WSW 23.0 mph 31.1 mph N/A   Clear
5:53 AM 42.1 °F 37.7 °F 19.0 °F 40% 29.97 in 10.0 mi SW 6.9 mph - N/A   Overcast
6:53 AM 41.0 °F 31.4 °F 19.9 °F 43% 29.95 in 10.0 mi West 21.9 mph - N/A   Partly Cloudy
7:53 AM 41.0 °F 29.8 °F 21.9 °F 47% 29.94 in 10.0 mi WSW 29.9 mph 38.0 mph N/A   Clear
8:53 AM 44.1 °F 36.8 °F 23.0 °F 43% 29.98 in 10.0 mi West 16.1 mph 25.3 mph N/A   Clear
9:53 AM 45.0 °F 37.4 °F 24.1 °F 44% 30.01 in 10.0 mi WSW 18.4 mph 26.5 mph N/A   Clear
10:53 AM 48.0 °F - 26.1 °F 42% 29.97 in 10.0 mi West 27.6 mph 38.0 mph N/A   Clear
11:53 AM 48.0 °F - 26.1 °F 42% 29.96 in 10.0 mi West 31.1 mph 38.0 mph N/A   Clear
12:53 PM 48.9 °F - 26.1 °F 41% 29.94 in 10.0 mi WSW 24.2 mph 33.4 mph N/A   Clear
1:53 PM 50.0 °F - 27.0 °F 41% 29.92 in 10.0 mi West 27.6 mph 36.8 mph N/A   Clear
2:53 PM 50.0 °F - 27.0 °F 41% 29.94 in 10.0 mi West 23.0 mph 27.6 mph N/A   Scattered Clouds
3:53 PM 46.9 °F - 27.0 °F 46% 29.95 in 10.0 mi West 17.3 mph - N/A   Clear
4:53 PM 43.0 °F 36.8 °F 26.1 °F 51% 29.99 in 10.0 mi West 11.5 mph - N/A   Clear
5:53 PM 41.0 °F 35.2 °F 27.0 °F 57% 30.01 in 10.0 mi West 9.2 mph - N/A   Mostly Cloudy
6:53 PM 39.0 °F 31.8 °F 25.0 °F 57% 30.03 in 10.0 mi West 11.5 mph - N/A   Clear
7:53 PM 37.0 °F 33.3 °F 24.1 °F 59% 30.04 in 10.0 mi SW 4.6 mph - N/A   Clear
8:53 PM 37.9 °F 35.5 °F 24.1 °F 57% 30.03 in 10.0 mi South 3.5 mph - N/A   Clear
9:53 PM 37.0 °F 33.3 °F 24.1 °F 59% 30.03 in 10.0 mi South 4.6 mph - N/A   Scattered Clouds
10:53 PM 39.0 °F 36.8 °F 23.0 °F 53% 30.02 in 10.0 mi South 3.5 mph - N/A   Partly Cloudy
11:53 PM 37.9 °F 35.5 °F 21.9 °F 53% 30.02 in 10.0 mi SW 3.5 mph - N/A   Clear